GW5189 Weather Reports


time (UTC)temp
F
wind
direction
speed
knots
gust
knots
rain 1hr
in
rain 24hr
in
rain mn
in
humidity
%
barometer
mb
20260505153112 54 162 2.6 6.1 0.00 0.02 0.02 54 1010.9
20260505152608 53 111 0.0 6.1 0.00 0.02 0.02 54 1010.8
20260505152104 53 218 1.7 5.2 0.00 0.02 0.02 54 1010.7
20260505151559 53 102 4.3 7.0 0.00 0.02 0.02 54 1010.7
20260505151057 53 222 4.3 6.1 0.00 0.02 0.02 55 1010.6
20260505150553 53 59 1.7 6.1 0.00 0.02 0.02 55 1010.6
20260505140519 54 156 1.7 9.6 0.00 0.02 0.02 55 1010.2
20260505124932 56 86 0.9 5.2 0.00 0.02 0.02 60 1009.1
20260505124429 55 160 1.7 5.2 0.00 0.02 0.02 61 1009.3
20260505123925 55 232 1.7 5.2 0.00 0.02 0.02 63 1009.2
20260505123422 55 121 0.0 1.7 0.00 0.02 0.02 64 1008.9
20260505122917 55 96 0.0 0.9 0.00 0.02 0.02 64 1008.8
20260505122415 55 172 1.7 5.2 0.00 0.02 0.02 63 1009.0
20260505121912 55 100 0.9 3.5 0.00 0.02 0.02 66 1009.0
20260505121409 55 191 1.7 6.1 0.00 0.02 0.02 66 1009.0
20260505120904 55 151 1.7 3.5 0.00 0.02 0.02 67 1008.9
20260505120401 55 207 2.6 5.2 0.00 0.02 0.02 68 1008.9
20260505115900 55 106 0.0 1.7 0.00 0.02 0.02 69 1009.1
20260505115357 55 276 1.7 6.1 0.00 0.02 0.02 69 1009.1
20260505114855 55 165 1.7 3.5 0.00 0.02 0.02 69 1009.1
20260505114351 55 241 3.5 5.2 0.00 0.02 0.02 68 1009.2
20260505113847 54 280 0.9 2.6 0.00 0.02 0.02 68 1009.1
20260505113344 54 123 1.7 2.6 0.00 0.02 0.02 67 1009.1
20260505112840 54 271 1.7 3.5 0.00 0.02 0.02 67 1009.0
20260505112337 54 238 2.6 3.5 0.00 0.02 0.02 68 1009.1
20260505111833 54 136 0.9 3.5 0.00 0.02 0.02 68 1009.1
20260505111328 54 125 0.9 3.5 0.00 0.02 0.02 69 1009.1
20260505110825 54 87 0.0 2.6 0.00 0.02 0.02 71 1009.1
20260505110322 54 272 0.9 1.7 0.00 0.02 0.02 72 1009.2
20260505101757 54 314 0.9 1.7 0.00 0.02 0.02 72 1009.2
20260505101252 55 349 0.9 0.9 0.07 0.02 0.02 69 1009.3
20260505100749 56 9 0.9 0.9 0.12 0.02 0.02 66 1009.1
20260505100246 56 85 0.0 0.9 0.00 0.00 0.00 63 1009.0
20260505095741 57 276 0.9 3.5 0.00 0.00 0.00 60 1009.2
20260505095239 57 190 0.9 2.6 0.00 0.00 0.00 57 1009.0
20260505094734 57 262 3.5 3.5 0.00 0.00 0.00 56 1009.2
20260505094231 57 257 0.9 1.7 0.00 0.00 0.00 57 1009.2
20260505093727 57 143 0.9 1.7 0.00 0.00 0.00 57 1009.3
20260505093225 57 113 0.0 2.6 0.00 0.00 0.00 57 1009.4
20260505092722 57 155 1.7 3.5 0.00 0.00 0.00 56 1009.1
20260505092221 57 286 0.9 1.7 0.00 0.00 0.00 56 1009.1
20260505091717 57 310 0.9 1.7 0.00 0.00 0.00 56 1009.1
20260505091215 57 243 0.9 2.6 0.00 0.00 0.00 56 1009.1
20260505090713 58 85 0.0 1.7 0.00 0.00 0.00 55 1009.2
20260505090211 58 84 0.9 1.7 0.00 0.00 0.00 55 1009.1
20260505085708 57 189 1.7 2.6 0.00 0.00 0.00 55 1009.2
20260505085206 57 283 0.9 1.7 0.00 0.00 0.00 56 1009.2
20260505084703 57 259 0.9 2.6 0.00 0.00 0.00 56 1009.3
20260505084202 57 28 0.0 0.9 0.00 0.00 0.00 56 1009.3
20260505083659 57 135 0.9 5.2 0.00 0.00 0.00 56 1009.4
20260505083155 57 153 0.9 2.6 0.00 0.00 0.00 57 1009.3
20260505082651 57 98 0.0 1.7 0.00 0.00 0.00 58 1009.4
20260505082148 57 230 3.5 5.2 0.00 0.00 0.00 57 1009.4
20260505081644 57 212 3.5 5.2 0.00 0.00 0.00 57 1009.2
20260505081142 57 217 1.7 2.6 0.00 0.00 0.00 56 1009.7
20260505080638 57 172 1.7 5.2 0.00 0.00 0.00 56 1009.4
20260505080134 57 194 1.7 2.6 0.00 0.00 0.00 56 1009.6
20260505075631 57 171 3.5 6.1 0.00 0.00 0.00 55 1009.8
20260505075128 57 222 0.9 7.0 0.00 0.00 0.00 55 1009.8
20260505074624 57 187 3.5 5.2 0.00 0.00 0.00 55 1009.4
20260505074121 57 132 1.7 7.8 0.00 0.00 0.00 55 1009.6
20260505073619 57 201 6.1 7.0 0.00 0.00 0.00 55 1009.4
20260505073118 58 219 6.1 8.7 0.00 0.00 0.00 54 1009.4
20260505072613 58 145 1.7 6.1 0.00 0.00 0.00 53 1009.6
20260505072109 58 134 5.2 8.7 0.00 0.00 0.00 53 1009.4
20260505071605 58 108 1.7 5.2 0.00 0.00 0.00 51 1009.6
20260505071103 58 142 2.6 7.0 0.00 0.00 0.00 51 1009.2
20260505070600 58 246 2.6 6.1 0.00 0.00 0.00 50 1009.3
20260505070056 57 218 3.5 5.2 0.00 0.00 0.00 51 1009.3
20260505065552 57 196 3.5 7.0 0.00 0.00 0.00 51 1009.4
20260505065049 57 259 4.3 8.7 0.00 0.00 0.00 51 1009.2
20260505064546 57 115 3.5 6.1 0.00 0.00 0.00 52 1009.3
20260505064044 57 255 1.7 6.1 0.00 0.00 0.00 52 1009.4
20260505063541 57 91 1.7 5.2 0.00 0.00 0.00 53 1009.3
20260505063037 57 151 4.3 5.2 0.00 0.00 0.00 53 1009.2
20260505062534 57 76 1.7 3.5 0.00 0.00 0.00 54 1009.6
20260505062031 57 241 2.6 3.5 0.00 0.00 0.00 54 1009.4
20260505061529 57 206 1.7 2.6 0.00 0.00 0.00 54 1009.4
20260505061026 57 124 1.7 7.8 0.00 0.00 0.00 54 1009.6
20260505060523 58 195 4.3 8.7 0.00 0.00 0.00 54 1009.3
20260505060020 58 142 3.5 7.0 0.00 0.00 0.00 54 1009.4
20260505055515 58 198 3.5 9.6 0.00 0.00 0.00 54 1009.6
20260505055012 58 230 2.6 9.6 0.00 0.00 0.00 53 1009.4
20260505054510 58 178 1.7 7.0 0.00 0.00 0.00 54 1009.6
20260505054008 58 91 0.9 7.8 0.00 0.00 0.00 54 1009.3
20260505053505 58 129 0.9 6.1 0.00 0.00 0.00 55 1009.4
20260505053001 58 85 0.9 3.5 0.00 0.00 0.00 55 1009.4
20260505052458 58 185 2.6 3.5 0.00 0.00 0.00 55 1009.3
20260505051955 59 261 3.5 6.1 0.00 0.00 0.00 55 1009.2
20260505051452 59 201 3.5 6.1 0.00 0.00 0.00 54 1009.3
20260505050951 60 36 5.2 6.1 0.00 0.00 0.00 53 1009.2
20260505050448 60 247 4.3 7.0 0.00 0.00 0.00 51 1009.2
20260505041416 63 147 1.7 5.2 0.00 0.00 0.00 40 1008.3
20260505040913 63 98 0.9 2.6 0.00 0.00 0.00 40 1008.3
20260505040411 63 142 1.7 2.6 0.00 0.00 0.00 40 1008.1
20260505035907 63 184 0.9 2.6 0.00 0.00 0.00 40 1008.1
20260505035403 63 106 2.6 6.1 0.00 0.00 0.00 40 1007.7
20260505034901 63 215 2.6 3.5 0.00 0.00 0.00 41 1007.7
20260505034357 63 238 1.7 6.1 0.00 0.00 0.00 42 1008.0
20260505033854 64 150 0.9 7.8 0.00 0.00 0.00 41 1007.7
20260505033351 64 222 3.5 6.1 0.00 0.00 0.00 41 1007.8
20260505032849 64 229 0.9 6.1 0.00 0.00 0.00 40 1007.7
20260505032345 64 268 4.3 6.1 0.00 0.00 0.00 39 1007.6
20260505031842 65 111 1.7 7.0 0.00 0.00 0.00 38 1007.6
20260505031339 65 144 2.6 6.1 0.00 0.00 0.00 38 1007.6
20260505030836 65 197 1.7 3.5 0.00 0.00 0.00 38 1007.5
20260505030332 65 270 0.9 6.1 0.00 0.00 0.00 38 1007.4
20260505025828 65 95 1.7 5.2 0.00 0.00 0.00 38 1007.5
20260505025326 66 100 1.7 2.6 0.00 0.00 0.00 38 1007.2
20260505024824 66 141 3.5 7.0 0.00 0.00 0.00 38 1007.5
20260505024321 66 204 2.6 3.5 0.00 0.00 0.00 37 1007.4
20260505023818 66 165 2.6 3.5 0.00 0.00 0.00 36 1007.2
20260505023315 66 298 1.7 7.0 0.00 0.00 0.00 35 1006.9
20260505022813 66 133 1.7 6.1 0.00 0.00 0.00 34 1006.9
20260505022309 66 164 1.7 3.5 0.00 0.00 0.00 35 1007.0
20260505021806 66 146 1.7 2.6 0.00 0.00 0.00 35 1006.9
20260505021303 67 69 0.0 0.9 0.00 0.00 0.00 35 1006.9
20260505020759 67 125 2.6 3.5 0.00 0.00 0.00 34 1006.9
20260505020254 67 188 1.7 5.2 0.00 0.00 0.00 34 1006.9
20260505015752 68 160 3.5 5.2 0.00 0.00 0.00 34 1006.9
20260505015249 68 167 1.7 5.2 0.00 0.00 0.00 32 1007.0
20260505014746 69 173 1.7 3.5 0.00 0.00 0.00 30 1006.9
20260505014243 69 107 0.9 1.7 0.00 0.00 0.00 29 1006.8
20260505013739 69 87 0.0 1.7 0.00 0.00 0.00 31 1007.0
20260505013237 69 115 1.7 3.5 0.00 0.00 0.00 31 1006.9
20260505012735 69 262 1.7 2.6 0.00 0.00 0.00 31 1007.2
20260505012232 69 67 0.0 2.6 0.00 0.00 0.00 30 1006.9
20260505011727 69 56 0.0 0.9 0.00 0.00 0.00 32 1007.0
20260505011225 69 58 1.7 2.6 0.00 0.00 0.00 32 1007.2
20260505010720 69 59 0.0 0.9 0.00 0.00 0.00 32 1007.2
20260505010217 69 56 0.0 2.6 0.00 0.00 0.00 31 1007.5
20260505005713 69 65 0.0 1.7 0.00 0.00 0.00 32 1007.2
20260505005211 69 68 0.9 1.7 0.00 0.00 0.00 32 1007.2
20260505004708 69 55 0.0 1.7 0.00 0.00 0.00 32 1007.3
20260505004204 69 66 0.9 1.7 0.00 0.00 0.00 32 1007.2
20260505003701 68 37 0.0 0.9 0.00 0.00 0.00 32 1007.3
20260505003159 68 66 0.0 5.2 0.00 0.00 0.00 32 1007.3
20260505002655 68 77 1.7 3.5 0.00 0.00 0.00 31 1007.4
20260505002153 68 66 0.0 3.5 0.00 0.00 0.00 32 1007.4
20260505001650 68 42 0.9 5.2 0.00 0.00 0.00 32 1007.5
20260505001147 68 56 3.5 7.8 0.00 0.00 0.00 33 1007.4
20260505000644 68 57 4.3 7.8 0.00 0.00 0.00 32 1007.7
20260505000142 68 66 3.5 7.8 0.00 0.00 0.00 32 1007.5
20260504235638 68 77 2.6 7.0 0.00 0.00 0.00 33 1007.6
20260504235135 68 49 0.9 7.0 0.00 0.00 0.00 32 1007.6
20260504234632 68 71 2.6 9.6 0.00 0.00 0.00 33 1008.0
20260504234130 69 54 4.3 7.8 0.00 0.00 0.00 33 1008.0
20260504233625 69 104 4.3 7.0 0.00 0.00 0.00 32 1007.7
20260504233121 70 47 2.6 8.7 0.00 0.00 0.00 31 1007.8
20260504232619 70 63 0.9 5.2 0.00 0.00 0.00 31 1008.1
20260504232116 71 80 1.7 6.1 0.00 0.00 0.00 29 1008.0
20260504231613 71 70 0.9 1.7 0.00 0.00 0.00 28 1007.7
20260504231109 73 73 0.9 6.1 0.00 0.00 0.00 28 1007.8
20260504230604 72 69 1.7 2.6 0.00 0.00 0.00 28 1007.7
20260504230104 71 19 1.7 3.5 0.00 0.00 0.00 30 1007.8
20260504225601 70 46 2.6 7.8 0.00 0.00 0.00 30 1007.8
20260504225058 70 53 3.5 7.8 0.00 0.00 0.00 31 1008.1
20260504224554 69 65 7.0 9.6 0.00 0.00 0.00 31 1008.2
20260504224052 70 152 6.1 9.6 0.00 0.00 0.00 30 1008.0
20260504223548 70 103 3.5 8.7 0.00 0.00 0.00 31 1008.0
20260504223044 71 84 2.6 7.0 0.00 0.00 0.00 29 1007.8
20260504222541 72 91 1.7 5.2 0.00 0.00 0.00 28 1008.0
20260504222038 72 75 1.7 3.5 0.00 0.00 0.00 27 1008.3
20260504221536 72 233 1.7 3.5 0.00 0.00 0.00 27 1008.1
20260504221032 71 270 2.6 8.7 0.00 0.00 0.00 27 1008.0
20260504220529 70 256 4.3 6.1 0.00 0.00 0.00 28 1007.8
20260504220026 69 208 1.7 7.0 0.00 0.00 0.00 31 1008.0
20260504215522 69 258 6.1 7.0 0.00 0.00 0.00 30 1007.8
20260504215020 69 247 4.3 7.8 0.00 0.00 0.00 30 1008.3
20260504214516 69 291 3.5 7.8 0.00 0.00 0.00 30 1007.7
20260504214012 69 269 6.1 7.8 0.00 0.00 0.00 29 1008.2
20260504213509 70 247 5.2 7.8 0.00 0.00 0.00 29 1008.0
20260504213006 70 275 3.5 9.6 0.00 0.00 0.00 28 1007.8
20260504212502 71 270 6.1 7.0 0.00 0.00 0.00 26 1007.7
20260504211959 71 273 3.5 5.2 0.00 0.00 0.00 25 1007.8
20260504211456 71 208 4.3 8.7 0.00 0.00 0.00 24 1008.1
20260504210953 72 270 2.6 8.7 0.00 0.00 0.00 24 1008.2
20260504210450 73 236 5.2 7.8 0.00 0.00 0.00 24 1008.1
20260504205947 73 241 2.6 6.1 0.00 0.00 0.00 24 1008.1
20260504205444 73 80 0.9 3.5 0.00 0.00 0.00 25 1008.2
20260504204942 73 252 1.7 2.6 0.00 0.00 0.00 26 1008.3
20260504204440 73 238 5.2 6.1 0.00 0.00 0.00 25 1008.4
20260504203939 73 277 4.3 7.0 0.00 0.00 0.00 26 1008.2
20260504203437 74 246 1.7 3.5 0.00 0.00 0.00 26 1008.2
20260504202932 73 54 0.0 1.7 0.00 0.00 0.00 26 1008.1
20260504202429 73 260 2.6 5.2 0.00 0.00 0.00 26 1008.3
20260504201926 74 275 0.9 2.6 0.00 0.00 0.00 27 1008.3
20260504201423 74 252 1.7 2.6 0.00 0.00 0.00 27 1008.4
20260504200921 74 70 0.9 1.7 0.00 0.00 0.00 26 1008.4
20260504200417 74 74 0.0 2.6 0.00 0.00 0.00 26 1008.4
20260504195914 73 279 2.6 3.5 0.00 0.00 0.00 26 1008.3
20260504195410 74 16 0.0 1.7 0.00 0.00 0.00 26 1008.5
20260504194907 74 109 0.0 2.6 0.00 0.00 0.00 26 1008.5
20260504194402 75 203 1.7 1.7 0.00 0.00 0.00 25 1008.5
20260504193859 76 66 0.0 6.1 0.00 0.00 0.00 26 1008.5
20260504193356 77 190 3.5 6.1 0.00 0.00 0.00 24 1008.8
20260504192855 77 57 0.9 1.7 0.00 0.00 0.00 24 1008.6
20260504192352 77 124 0.9 1.7 0.00 0.00 0.00 24 1008.6
20260504191850 78 166 3.5 6.1 0.00 0.00 0.00 23 1008.6
20260504191348 79 59 1.7 3.5 0.00 0.00 0.00 23 1008.8
20260504190843 79 101 1.7 2.6 0.00 0.00 0.00 23 1008.9
20260504190339 77 47 0.9 1.7 0.00 0.00 0.00 24 1008.8
20260504185836 75 72 0.9 1.7 0.00 0.00 0.00 26 1008.9
20260504185333 76 100 1.7 2.6 0.00 0.00 0.00 24 1009.1
20260504184829 75 70 0.9 0.9 0.00 0.00 0.00 25 1009.2
20260504184325 74 87 0.9 2.6 0.00 0.00 0.00 27 1009.3
20260504183821 74 102 0.9 3.5 0.00 0.00 0.00 27 1009.3
20260504183318 74 141 1.7 1.7 0.00 0.00 0.00 25 1009.2
20260504182816 74 106 0.9 3.5 0.00 0.00 0.00 26 1009.2
20260504182313 74 115 1.7 3.5 0.00 0.00 0.00 26 1009.3
20260504181810 74 246 2.6 5.2 0.00 0.00 0.00 28 1009.4
20260504181308 75 134 1.7 3.5 0.00 0.00 0.00 26 1009.4
20260504180807 74 73 0.9 2.6 0.00 0.00 0.00 26 1009.7
20260504180305 75 53 1.7 6.1 0.00 0.00 0.00 26 1009.8
20260504175803 75 176 3.5 5.2 0.00 0.00 0.00 26 1009.7
20260504175259 75 128 0.9 5.2 0.00 0.00 0.00 27 1009.6
20260504174757 75 169 2.6 3.5 0.00 0.00 0.00 26 1009.7
20260504174254 74 116 1.7 2.6 0.00 0.00 0.00 28 1009.8
20260504173751 73 124 0.9 6.1 0.00 0.00 0.00 28 1010.0
20260504173248 73 233 3.5 7.0 0.00 0.00 0.00 28 1009.9
20260504172744 73 197 3.5 6.1 0.00 0.00 0.00 28 1010.0
20260504172241 73 228 3.5 6.1 0.00 0.00 0.00 28 1010.0
20260504171737 73 187 3.5 6.1 0.00 0.00 0.00 29 1009.9
20260504171234 72 225 1.7 7.0 0.00 0.00 0.00 28 1010.0
20260504170732 72 117 0.9 3.5 0.00 0.00 0.00 29 1010.0
20260504170229 72 197 3.5 7.0 0.00 0.00 0.00 28 1010.4
20260504160147 69 131 0.9 6.1 0.00 0.00 0.00 33 1010.2